Weather History for Aurora, IL

Change the Weather History Date:

Friday, April 5, 2013

  Actual Average Record
Temperature  
Mean Temperature 41 °F 45 °F  
Max Temperature 50 °F 56 °F 76 °F (2005)
Min Temperature 32 °F 34 °F 21 °F (2000)
Degree Days  
Heating Degree Days 24 20  
Month to date heating degree days 143 105  
Since 1 July heating degree days 6057 6113  
Cooling Degree Days 0 0  
Month to date cooling degree days 0 0  
Year to date cooling degree days 0 0  
Moisture  
Dew Point 23 °F    
Average Humidity 60    
Maximum Humidity 89    
Minimum Humidity 30    
Precipitation  
Precipitation 0.00 in 0.10 in 0.28 in (2010)
Month to date precipitation 0.00 0.49  
Year to date precipitation 6.22 5.81  
Sea Level Pressure  
Sea Level Pressure 30.16 in    
Wind  
Wind Speed 11 mph (NE)    
Max Wind Speed 18 mph    
Max Gust Speed 23 mph    
Visibility 10 miles    
Events      
T = Trace of Precipitation, MM = Missing Value Source: NWS Daily Summary

Daily Weather History Graph

Daily Weather History Graph

Search for Another Location

Airport:

Trip Planner

Search our weather history database for the weather conditions in past years. The results will help you decide how hot, cold, wet, or windy it might be!

Date:

Astronomy

Apr. 05, 2013 Rise Set
Actual Time 6:29 AM CDT 7:24 PM CDT
Civil Twilight 6:01 AM CDT 7:52 PM CDT
Nautical Twilight 5:27 AM CDT 8:26 PM CDT
Astronomical Twilight 4:52 AM CDT 9:01 PM CDT
Moon 3:40 AM CDT (4/5) 2:44 PM CDT (4/5)
Length of Visible Light 13h 51m
Length of Day
12h 54m
Waning Crescent, 23% of the Moon is Illuminated
Apr 5
Waning Crescent
Apr 10
New
Apr 18
First Quarter
Apr 25
Full
May 2
Last Quarter

Hourly Weather History & Observations

Time (CDT) Temp. Windchill Dew Point Humidity Pressure Visibility Wind Dir Wind Speed Gust Speed Precip Events Conditions
12:52 AM 36.0 °F 29.0 °F 32.0 °F 86% 30.04 in 9.0 mi NNW 9.2 mph - N/A   Clear
1:52 AM 34.0 °F 26.6 °F 30.9 °F 89% 30.05 in 9.0 mi NW 9.2 mph - N/A   Clear
2:52 AM 33.1 °F 25.5 °F 28.9 °F 85% 30.05 in 8.0 mi NNW 9.2 mph - N/A   Clear
3:52 AM 32.0 °F 24.8 °F 27.0 °F 82% 30.08 in 9.0 mi NNW 8.1 mph - N/A   Clear
4:52 AM 36.0 °F 28.0 °F 28.9 °F 76% 30.11 in 10.0 mi NNE 11.5 mph - N/A   Clear
5:52 AM 34.0 °F 25.5 °F 28.0 °F 79% 30.14 in 10.0 mi NE 11.5 mph - N/A   Clear
6:52 AM 32.0 °F 25.6 °F 27.0 °F 82% 30.17 in 10.0 mi NNE 6.9 mph - N/A   Clear
7:52 AM 36.0 °F 29.0 °F 28.9 °F 76% 30.19 in 10.0 mi NE 9.2 mph - N/A   Clear
8:52 AM 39.9 °F 32.1 °F 28.0 °F 63% 30.20 in 10.0 mi NE 13.8 mph - N/A   Clear
9:52 AM 43.0 °F 36.8 °F 26.1 °F 51% 30.22 in 10.0 mi ENE 11.5 mph - N/A   Clear
10:52 AM 46.0 °F 39.9 °F 21.9 °F 39% 30.24 in 10.0 mi NE 13.8 mph - N/A   Clear
11:52 AM 46.9 °F - 21.0 °F 36% 30.23 in 10.0 mi NE 11.5 mph - N/A   Clear
12:52 PM 48.9 °F - 21.9 °F 35% 30.21 in 10.0 mi ENE 8.1 mph 18.4 mph N/A   Clear
1:52 PM 48.9 °F - 23.0 °F 36% 30.19 in 10.0 mi East 15.0 mph - N/A   Clear
2:52 PM 48.9 °F - 23.0 °F 36% 30.18 in 10.0 mi ENE 8.1 mph - N/A   Clear
3:52 PM 48.9 °F - 21.0 °F 33% 30.18 in 10.0 mi ENE 8.1 mph - N/A   Clear
4:52 PM 48.9 °F - 21.0 °F 33% 30.17 in 10.0 mi ENE 6.9 mph - N/A   Clear
5:52 PM 46.0 °F 41.4 °F 21.0 °F 37% 30.18 in 10.0 mi East 9.2 mph - N/A   Clear
6:52 PM 43.0 °F 36.0 °F 21.9 °F 43% 30.18 in 10.0 mi East 13.8 mph - N/A   Overcast
7:52 PM 41.0 °F 34.3 °F 17.1 °F 38% 30.18 in 10.0 mi East 11.5 mph - N/A   Overcast
8:52 PM 39.9 °F 31.8 °F 10.9 °F 31% 30.17 in 10.0 mi East 15.0 mph - N/A   Overcast
9:52 PM 39.0 °F 29.6 °F 10.9 °F 32% 30.13 in 10.0 mi East 18.4 mph - N/A   Overcast
10:52 PM 37.9 °F 31.5 °F 12.9 °F 36% 30.16 in 10.0 mi East 9.2 mph - N/A   Overcast
11:52 PM 37.9 °F 30.9 °F 15.1 °F 39% 30.15 in 10.0 mi East 10.4 mph - N/A   Clear